Zurück zum Katalog

PANDORA

AktivWissenschaftSSO
NORAD 67395·PAYLOAD·🇺🇸 United States

Gestartet Jan 11, 2026 von Vandenberg Space Force Base

Loading…

Nächste Überflüge (nächste 24 Stunden)

TLE

AktuellSource: Space-Track

Epoche: Sep 14, 2026, 11:08 UTC

1 67395U 26004AJ  26257.46403054  .00000541  00000-0  64563-4 0  9998
2 67395  97.8103 254.7693 0005022 178.3355 181.7880 14.88199450 36558

Verfolge PANDORA in Echtzeit mit AllMySat

Download on the App Store